Regional Weather Roundup
Issued by NWS

Home | Current Version | Previous Version | Graphics & Text | Print | Product List | Glossary On
Versions: 1 2 3 4 5 6 7 8 9 10 11 12 13 14 15 16 17 18 19 20 21 22 23 24 25 26 27 28 29 30 31 32 33 34 35 36 37 38 39 40 41 42 43 44 45 46 47 48 49 50
000
ASUS43 KMKX 230920
RWRWI

WISCONSIN REGIONAL WEATHER ROUNDUP
NATIONAL WEATHER SERVICE MILWAUKEE/SULLIVAN WI
300 AM CST MON JAN 23 2017

NOTE: "FAIR" INDICATES FEW OR NO CLOUDS BELOW 12,000 FEET WITH NO
SIGNIFICANT WEATHER AND/OR OBSTRUCTIONS TO VISIBILITY.

WIZ001-002-006>008-014>016-023>028-231000-
NORTHWEST WISCONSIN

CITY           SKY/WX    TMP DP  RH WIND       PRES   REMARKS
SUPERIOR ARPT  CLOUDY    35  35 100 SW5       29.78R WCI  31
ASHLAND        CLOUDY    35  34  96 SW6       29.77R WCI  30
HAYWARD        FOG       34  33  96 CALM      29.76R VSB 1/4
SIREN          FOG       35  35 100 CALM      29.78S VSB 3/4
CUMBERLAND     FOG       32  32 100 W3        29.77S VSB 1/4
RICE LAKE      FOG       34  34 100 CALM      29.79R VSB<1/4
CHETEK         FOG       34  34 100 CALM      29.78R VSB 1
LADYSMITH      FOG       34  34  99 W3        29.77S VSB 1/2
EAU CLAIRE     CLOUDY    34  34 100 W6        29.78R FOG     WCI  29
MENOMONIE        N/A    N/A N/A N/A MISG        N/A
NEW RICHMOND   CLOUDY    33  33 100 W8        29.80R FOG     WCI  26
OSCEOLA        CLOUDY    34  34 100 W6        29.83R FOG     WCI  29
$$

WIZ003>005-009-010-017-018-231000-
NORTH CENTRAL WISCONSIN

CITY           SKY/WX    TMP DP  RH WIND       PRES   REMARKS
MANITOWISH WTR CLOUDY    32  32 100 CALM      29.73R
ARBOR VITAE    CLOUDY    34  33  97 CALM      29.73S
WOODRUFF       CLOUDY    34  33  97 CALM      29.73S
RHINELANDER    CLOUDY    34  33  96 W3        29.73S
EAGLE RIVER    FOG       32  32 100 CALM      29.72S VSB 1/2
LAND O LAKES   FOG       33  33 100 CALM      29.74R VSB 3/4
PHILLIPS       DRIZZLE   32  32 100 CALM      29.75R
TOMAHAWK       CLOUDY    32  32  99 CALM      29.74S
MEDFORD        FOG       32  32 100 W6        29.74S VSB 3/4 WCI  26
MERRILL        CLOUDY    34  34 100 CALM        N/A
$$

WIZ029-030-035-036-043>047-231000-
CENTRAL WISCONSIN

CITY           SKY/WX    TMP DP  RH WIND       PRES   REMARKS
WAUSAU         CLOUDY    34  33  96 NW3       29.72S
MOSINEE        CLOUDY    32  32 100 NW5       29.74S WCI  27
MARSHFIELD     CLOUDY    34  32  92 NW7       29.73S WCI  28
STEVENS POINT  CLOUDY    33  33 100 CALM      29.74S FOG
WAUPACA        CLOUDY    37  36  96 CALM      29.75R FOG
WAUTOMA        CLOUDY    35  34  96 NW6       29.75S FOG     WCI  30
WISC RAPIDS    FOG       34  34 100 NW5       29.76S VSB 1   WCI  30
CAMP DOUGLAS   CLOUDY    36  34  93 W7        29.76S FOG     WCI  30
$$

WIZ011>013-019>022-031-037>040-048>050-231000-
NORTHEAST WISCONSIN

CITY           SKY/WX    TMP DP  RH WIND       PRES   REMARKS
ANTIGO         CLOUDY    33  33 100 NW5       29.72S FOG     WCI  28
SHAWANO        CLOUDY    37  36  94 CALM      29.74S
OCONTO         CLOUDY    36  36 100 CALM      29.72F
STURGEON BAY   FOG       35  34  96 NW3       29.72F VSB 1/2
GREEN BAY      CLOUDY    37  37 100 NW3       29.73R FOG
MANITOWOC      FOG       36  36 100 NW3       29.72F VSB 3/4
APPLETON       FOG       36  36 100 NW7       29.71S VSB 1   WCI  30
CLINTONVILLE   CLOUDY    36  34  93 NW3       29.73S
OSHKOSH        CLOUDY    35  34  96 W7        29.73R FOG     WCI  29
$$

WIZ032>034-041-042-053>061-231000-
SOUTHWEST WISCONSIN

CITY           SKY/WX    TMP DP  RH WIND       PRES   REMARKS
LA CROSSE      FOG       37  35  92 CALM      29.80R VSB 1/2
SPARTA         FOG       34  34 100 CALM      29.79S VSB 1
VIROQUA        CLOUDY    34  34 100 W5        29.77S VSB 1/4 WCI  30
BOSCOBEL       CLOUDY    38  35  89 W3        29.79R
PRAIRIE DU CHI DRIZZLE   35  34  96 NW5       29.80S WCI  31
PLATTEVILLE    CLOUDY    35  35 100 NW5       29.77S WCI  31
$$

WIZ056-057-062-063-064-067-068-231000-
SOUTH CENTRAL WISCONSIN

CITY           SKY/WX    TMP DP  RH WIND       PRES   REMARKS
REEDSBURG      CLOUDY    35  35 100 W5        29.76S FOG     WCI  31
BARABOO/DELLS  CLOUDY    34  34  99 NW3       29.75S FOG
LONE ROCK      CLOUDY    35  34  96 W6        29.78S FOG     WCI  30
MINERAL POINT  FOG       36  36 100 NW7       29.75S VSB 1/2 WCI  30
MADISON        CLOUDY    35  34  96 NW6       29.75S WCI  30
MIDDLETON      CLOUDY    37  37 100 NW7       29.75S WCI  31
WATERTOWN      CLOUDY    35  35 100 NW5       29.73S FOG     WCI  31
MONROE         CLOUDY    36  36 100 NW5       29.74S FOG     WCI  32
JANESVILLE     CLOUDY    36  36 100 NW5       29.73F FOG     WCI  32
$$

WIZ051-052-058>065-066-070>072-231000-
SOUTHEAST WISCONSIN

CITY           SKY/WX    TMP DP  RH WIND       PRES   REMARKS
MILWAUKEE      CLOUDY    39  35  86 NW10      29.71S WCI  32
WAUKESHA       CLOUDY    34  34 100 NW5       29.73S FOG     WCI  30
MILWAUKEE/TIMM CLOUDY    36  34  93 NW6       29.73S FOG     WCI  31
RACINE         CLOUDY    37  35  92 NW6       29.72F WCI  32
KENOSHA        CLOUDY    37  35  92 N5        29.71S WCI  33
FOND DU LAC    LGT SNOW  36  33  89 NW8       29.72F VSB 1   WCI  30
SHEBOYGAN      CLOUDY    37  35  92 NW6       29.71F FOG     WCI  32
WEST BEND      CLOUDY    36  36 100 NW6       29.72R FOG     WCI  31
JUNEAU         CLOUDY    34  34  99 NW6       29.73F FOG     WCI  29
$$

LSZ147-162-231000-
LAKE SUPERIOR

STATION/POSITION TIME  TEMP    WIND        PRES    WAVE
                       AIR SEA DIR/SP/G            HT/PER
                 (UTC) (F)     (DEG/KT/KT) (MB)    (FT/S)
DEVILS ISLAND    0900   34     210/  5/  6 1008.6R
PORT WING        0830   35     200/  3/  4 1008.1R
SAXON HARBOR     0840   35     200/  3/  5 1007.8R
$$

LMZ867-665-643>646-231000-
LAKE MICHIGAN

STATION/POSITION TIME  TEMP    WIND        PRES    WAVE
                       AIR SEA DIR/SP/G            HT/PER
                 (UTC) (F)     (DEG/KT/KT) (MB)    (FT/S)
NORTHPORT PIER   0840   35     300/  3/  4 1006.4F
SISTER BAY       0835   33        CALM       N/A
KEWAUNEE LAKESHO 0854   36     300/  3/  5 1005.9F
SHEBOYGAN LAKESH 0900   37     310/  6/  7 1006.4F
PORT WASHINGTON  0840   38     310/  2/  3 1007.5S
KENOSHA   LAKESH 0900   37     320/  8/ 10 1006.4
$$

TC  - TEMPERATURE IN CELSIUS
VSB - VISIBILITY IN STATUTE MILES
WCI - WIND CHILL INDEX
HX  - HEAT INDEX




USA.gov is the U.S. government's official web portal to all federal, state and local government web resources and services.